Lid_Strength_Index
2 4 6 7 12 14 15 12 11 11 12 10 9 10 9 8 9 11 3 1 0 0 -0 -1 -1 -1 -1 -1 -1 -1 -1 -1 -1 -1 -1 -2 -2 -2 -1 -1 -1 -1 -1 -2 -2 -1 -1 -1 -1
4 6 7 10 15 17 16 13 12 11 9 8 8 9 10 9 5 5 4 1 -0 0 0 0 -1 -1 -1 -1 -1 -1 -1 -1 -1 -1 -1 -1 -1 -1 -2 -2 -1 -1 -1 -1 -1 -0 -0 0 0
6 6 10 13 16 17 15 13 12 10 9 8 9 9 9 7 5 4 2 0 0 1 1 0 -1 -1 -1 -1 -1 -1 -0 -1 -1 -1 -2 -1 -1 -1 -1 -2 -2 -2 -2 -1 -0 0 1 1 1
8 9 10 14 16 13 13 13 11 10 10 9 8 11 9 7 4 3 1 0 2 1 0 -1 -1 -1 -1 -1 -0 -0 -0 -0 -1 -1 -2 -1 -1 -1 -1 -1 -1 -1 -1 -1 -1 0 1 1 2
9 10 14 16 15 12 12 11 10 11 10 10 9 10 10 6 2 2 2 1 2 1 0 -0 -1 -1 -1 -0 0 0 0 0 -0 -1 -1 -0 -0 -0 -0 -0 -0 -0 -0 0 1 1 1 1 1
12 11 16 16 14 12 11 10 11 11 11 10 10 10 10 5 3 2 2 2 1 1 1 1 0 -1 -0 -0 0 0 0 0 0 0 0 0 0 1 1 1 1 1 1 2 2 2 2 3 3
13 14 16 15 14 13 11 10 12 11 11 11 9 11 10 7 4 3 3 2 2 1 1 2 1 1 1 0 0 1 1 1 1 1 1 2 2 2 2 2 2 2 3 3 3 3 3 4 4
12 13 15 14 14 13 10 11 11 11 11 10 9 11 11 7 4 3 3 3 2 2 2 2 4 4 5 3 2 2 2 2 2 3 3 3 4 4 4 5 4 4 4 4 4 4 4 4 3
11 16 16 14 13 11 11 12 11 11 11 11 10 10 8 5 3 4 5 4 3 2 2 3 4 4 5 5 4 3 3 3 4 4 4 4 8 7 8 6 5 5 5 5 4 5 4 4 5
13 16 14 11 11 11 10 11 11 12 12 13 11 7 5 4 4 4 4 4 4 4 4 4 4 5 5 5 6 7 6 7 8 8 8 8 9 9 8 7 6 6 6 5 5 5 5 6 9
13 14 11 11 9 9 11 11 11 12 13 12 11 8 6 6 5 4 5 4 4 4 4 4 5 5 6 7 8 9 9 9 9 9 9 9 9 9 9 10 10 10 8 9 8 9 9 9 9
14 12 11 10 9 10 11 11 12 12 11 9 10 7 6 6 5 5 5 5 5 4 5 6 6 6 8 8 8 9 9 9 9 9 9 10 10 10 10 11 10 10 10 10 10 10 10 10 9
13 12 11 10 10 11 10 11 12 12 10 10 9 8 7 6 5 5 4 5 5 5 5 6 7 7 8 9 9 9 9 9 10 10 9 10 10 11 11 11 11 11 11 11 11 11 11 10 10
10 11 11 10 10 11 11 12 12 12 10 11 10 10 8 7 6 7 7 5 5 5 5 6 7 7 8 9 9 10 10 10 10 10 10 10 11 11 11 11 11 11 11 11 11 11 11 11 10
10 12 11 11 11 12 11 13 14 10 10 11 11 11 9 8 8 7 6 6 5 5 5 6 7 8 9 9 10 10 10 10 10 10 10 10 10 11 12 12 12 12 11 11 12 11 11 11 10
13 14 15 12 11 11 12 16 12 10 11 11 11 12 11 10 9 8 8 7 6 6 6 6 6 8 9 10 10 10 10 11 11 11 11 10 10 11 12 12 12 12 12 12 12 12 12 11 11
14 19 17 14 11 12 13 14 11 10 11 11 10 11 12 11 11 10 9 8 7 6 7 8 8 9 10 10 10 11 11 11 11 12 12 11 11 11 12 12 12 12 12 12 12 12 12 12 11
16 17 15 16 12 11 13 14 13 11 11 11 11 11 12 11 11 11 11 10 10 9 8 8 9 9 10 10 11 12 12 12 12 12 12 11 12 11 12 12 12 12 12 12 12 12 12 12 12
11 13 14 13 12 12 13 13 13 11 12 13 12 13 12 12 11 11 11 11 11 12 11 9 10 10 10 11 12 13 13 13 13 13 12 12 12 12 13 13 13 12 13 13 12 12 12 12 11
12 13 13 11 10 12 13 14 13 12 12 11 12 12 12 13 13 12 12 12 12 12 12 11 10 10 10 11 12 12 13 13 13 13 13 12 12 12 12 13 13 13 13 13 13 12 12 12 12
12 13 13 13 12 11 13 15 14 13 12 12 12 11 11 12 12 12 12 12 13 13 12 12 10 10 11 11 12 13 13 14 14 14 14 13 13 12 13 13 13 13 13 13 13 13 12 13 12
14 10 11 12 14 17 12 19 14 13 13 12 11 12 12 11 11 12 12 13 13 13 13 12 10 10 11 11 12 13 15 15 15 14 14 14 13 13 13 12 13 13 13 13 13 12 12 13 13
13 9 11 12 14 15 15 18 15 13 13 12 11 11 11 11 11 12 12 12 12 12 12 12 11 11 11 12 12 14 15 14 14 15 15 15 14 14 13 13 13 14 13 13 13 13 13 13 13
9 12 13 13 15 19 15 17 16 14 13 12 11 11 10 11 11 12 12 12 13 13 13 13 12 12 13 13 14 14 15 15 16 16 16 16 15 15 14 14 14 14 14 14 13 13 14 14 14
12 14 19 21 20 21 14 17 15 13 11 11 11 10 9 9 10 12 13 13 13 13 14 14 13 14 14 14 15 15 15 15 16 16 16 16 16 16 15 14 14 14 14 13 13 13 13 13 13
13 14 18 23 23 19 15 19 15 10 9 9 10 12 11 11 11 12 13 13 13 14 14 14 14 15 15 15 15 15 15 16 16 16 16 16 17 16 15 15 14 14 13 13 13 13 12 12 12
14 16 13 18 23 20 18 15 12 11 13 13 14 11 11 12 13 13 13 13 14 14 14 15 15 16 16 16 16 16 16 16 17 16 16 16 16 16 17 18 18 17 17 17 15 13 13 13 13
13 11 17 16 22 22 19 19 17 14 15 13 15 13 13 13 13 13 14 14 14 14 15 15 16 16 16 16 16 16 17 17 18 19 18 18 18 16 19 21 20 20 20 18 15 14 14 14 14
14 15 14 15 16 20 22 19 15 14 18 17 17 15 14 14 14 14 14 15 16 17 17 17 18 18 18 17 18 17 18 18 19 20 21 22 23 22 22 22 20 15 15 15 15 15 14 14 14
12 13 14 18 21 20 20 17 17 22 23 18 16 15 15 15 15 16 17 17 17 18 19 20 20 19 19 19 18 19 18 19 22 23 24 23 22 23 22 19 15 15 15 15 15 15 15 15 15